Flag for United Kingdom Weather past 2 weeks in Eastbourne, England, United Kingdom

Now
66 °F

Scattered clouds.


Feels Like: 66 °F
Forecast: 58 / 67 °F
Wind: 23 mph from Southwest

Location: Shoreham Airport

Current Time: Aug 29, 2014 at 3:10:41 PM

Latest Report: Aug 29, 2014 at 2:20 PM


Visibility: N/A

Pressure: 29.98 "Hg

Humidity: 68%

Dew point: 55 °F

Location of EastbourneLocation

Historic Weather in Eastbourne — Graph

°F

Eastbourne temperature yesterday

Maximum temperature yesterday: 68 °F (at 11:20 AM)
Minimum temperature yesterday: 63 °F (at 7:50 AM)
Average temperature yesterday: 65 °F

Past Weeks' High & Low Weather Summary

 TemperatureHumidityPressure
High68 °F (Aug 14, 2:20 PM)100% (Aug 25, 8:20 AM)30.18 "Hg (Aug 25, 8:20 AM)
Low52 °F (Aug 20, 7:50 AM)40% (Aug 22, 5:20 PM)29.56 "Hg (Aug 25, 7:50 PM)
Average63 °F71%29.91 "Hg
* Reported Aug 14 1:20 PM — Aug 29 1:50 PM, Eastbourne, Weather by CustomWeather, © 2014

Note: Actual official high and low records may vary slightly from our data, if they occured in-between our weather recording intervals... More about our weather records

Advertising

Eastbourne weather history for previous 24 hours

 ConditionsComfort  
Time TempWeatherWind HumidityBarometerVisibility
1:50 PM
Aug 29
66 °FScattered clouds.14 mph73%29.98 "HgN/A
1:20 PM66 °FScattered clouds.17 mph68%29.98 "HgN/A
12:50 PM64 °FScattered clouds.18 mph73%29.98 "HgN/A
12:20 PM63 °FSprinkles. Broken clouds.18 mph83%29.98 "HgN/A
11:50 AM64 °FSprinkles. Partly sunny.22 mph83%29.95 "HgN/A
11:20 AM64 °FPartly sunny.21 mph78%29.95 "HgN/A
10:50 AM66 °FPartly sunny.23 mph78%29.95 "HgN/A
10:20 AM64 °FScattered clouds.22 mph83%29.95 "HgN/A
9:50 AM64 °FBroken clouds.20 mph83%29.95 "HgN/A
9:20 AM64 °FBroken clouds.20 mph78%29.95 "HgN/A
8:50 AM64 °FScattered showers. Broken clouds.20 mph78%29.95 "HgN/A
8:20 AM63 °FScattered showers. Broken clouds.18 mph83%29.95 "HgN/A
7:50 AM63 °FScattered showers. Broken clouds.17 mph83%29.95 "HgN/A
7:20 PM
Aug 28
63 °FPassing clouds.16 mph83%29.89 "HgN/A
6:20 PM64 °FScattered clouds.16 mph78%29.89 "HgN/A
5:50 PM64 °FScattered clouds.15 mph83%29.89 "HgN/A
5:20 PM64 °FScattered clouds.16 mph83%29.89 "HgN/A
4:20 PM66 °FScattered clouds.17 mph83%29.89 "HgN/A
3:50 PM66 °FScattered clouds.18 mph83%29.89 "HgN/A
3:20 PM66 °FScattered clouds.18 mph83%29.89 "HgN/A
Weather by CustomWeather, © 2014

See weather overviewHow to use our weather pages